Time,TemperatureF,DewpointF,PressureIn,WindDirection,WindDirectionDegrees,WindSpeedMPH,WindSpeedGustMPH,Humidity,HourlyPrecipIn,Conditions,Clouds,dailyrainin,SoftwareType,DateUTC
2013-05-27 00:03:00,58.3,43.1,30.23,SSW,202,0.0,0.0,57,0.00,,,0.00,WUHU21523XXSP,2013-05-27 04:03:00,
2013-05-27 00:08:00,58.1,43.4,30.23,SSW,202,0.0,0.0,58,0.00,,,0.00,WUHU21523XXSP,2013-05-27 04:08:00,
2013-05-27 00:13:00,57.9,43.2,30.23,SSW,202,0.0,0.0,58,0.00,,,0.00,WUHU21523XXSP,2013-05-27 04:13:00,
2013-05-27 00:18:00,57.7,43.2,30.23,SSW,202,0.0,0.0,58,0.00,,,0.00,WUHU21523XXSP,2013-05-27 04:18:00,
2013-05-27 00:23:00,57.7,43.5,30.24,SSW,202,0.0,0.0,59,0.00,,,0.00,WUHU21523XXSP,2013-05-27 04:23:00,
2013-05-27 00:28:00,57.6,43.4,30.23,SSW,202,0.0,0.0,59,0.00,,,0.00,WUHU21523XXSP,2013-05-27 04:28:00,
2013-05-27 00:33:00,57.6,43.4,30.23,SSW,202,0.0,0.0,59,0.00,,,0.00,WUHU21523XXSP,2013-05-27 04:33:00,
2013-05-27 00:38:00,57.4,43.2,30.24,SSW,202,0.0,0.0,60,0.00,,,0.00,WUHU21523XXSP,2013-05-27 04:38:00,
2013-05-27 00:43:00,57.0,43.3,30.23,SSW,202,0.0,0.0,60,0.00,,,0.00,WUHU21523XXSP,2013-05-27 04:43:00,
2013-05-27 00:48:00,57.0,43.3,30.25,SSW,202,0.0,0.0,60,0.00,,,0.00,WUHU21523XXSP,2013-05-27 04:48:00,
2013-05-27 00:53:00,57.2,43.5,30.24,SSW,202,0.0,0.0,60,0.00,,,0.00,WUHU21523XXSP,2013-05-27 04:53:00,
2013-05-27 00:58:00,57.2,43.5,30.25,SSW,202,0.0,0.0,60,0.00,,,0.00,WUHU21523XXSP,2013-05-27 04:58:00,
2013-05-27 01:03:00,57.0,43.3,30.24,SSW,202,0.0,0.0,60,0.00,,,0.00,WUHU21523XXSP,2013-05-27 05:03:00,
2013-05-27 01:08:00,57.0,43.7,30.24,SSW,202,0.0,0.0,61,0.00,,,0.00,WUHU21523XXSP,2013-05-27 05:08:00,
2013-05-27 01:13:00,56.8,43.6,30.24,SSW,202,0.0,0.0,61,0.00,,,0.00,WUHU21523XXSP,2013-05-27 05:13:00,
2013-05-27 01:18:00,56.8,43.6,30.24,SSW,202,0.0,0.0,61,0.00,,,0.00,WUHU21523XXSP,2013-05-27 05:18:00,
2013-05-27 01:23:00,56.3,43.4,30.25,SSW,202,0.0,0.0,62,0.00,,,0.00,WUHU21523XXSP,2013-05-27 05:23:00,
2013-05-27 01:28:00,56.1,43.3,30.25,SSW,202,0.0,0.0,62,0.00,,,0.00,WUHU21523XXSP,2013-05-27 05:28:00,
2013-05-27 01:33:00,55.9,43.1,30.24,SSW,202,0.0,0.0,62,0.00,,,0.00,WUHU21523XXSP,2013-05-27 05:33:00,
2013-05-27 01:38:00,55.9,43.5,30.24,SSW,202,0.0,0.0,63,0.00,,,0.00,WUHU21523XXSP,2013-05-27 05:38:00,
2013-05-27 01:43:00,55.8,43.3,30.25,SSW,202,0.0,0.0,63,0.00,,,0.00,WUHU21523XXSP,2013-05-27 05:43:00,
2013-05-27 01:48:00,55.8,43.3,30.24,SSW,202,0.0,0.0,63,0.00,,,0.00,WUHU21523XXSP,2013-05-27 05:48:00,
2013-05-27 01:53:00,55.6,43.1,30.25,SSW,202,0.0,0.0,63,0.00,,,0.00,WUHU21523XXSP,2013-05-27 05:53:00,
2013-05-27 01:58:00,55.4,43.4,30.25,SSW,202,0.0,0.0,64,0.00,,,0.00,WUHU21523XXSP,2013-05-27 05:58:00,
2013-05-27 02:03:00,55.2,43.2,30.25,SSW,202,0.0,0.0,64,0.00,,,0.00,WUHU21523XXSP,2013-05-27 06:03:00,
2013-05-27 02:08:00,55.2,43.2,30.25,SSW,202,0.0,0.0,64,0.00,,,0.00,WUHU21523XXSP,2013-05-27 06:08:00,
2013-05-27 02:13:00,55.0,43.0,30.25,SSW,202,0.0,0.0,64,0.00,,,0.00,WUHU21523XXSP,2013-05-27 06:13:00,
2013-05-27 02:18:00,55.0,43.4,30.25,SSW,202,0.0,0.0,65,0.00,,,0.00,WUHU21523XXSP,2013-05-27 06:18:00,
2013-05-27 02:23:00,54.9,43.3,30.25,SSW,202,0.0,0.0,65,0.00,,,0.00,WUHU21523XXSP,2013-05-27 06:23:00,
2013-05-27 02:28:00,54.7,43.1,30.25,SSW,202,0.0,0.0,65,0.00,,,0.00,WUHU21523XXSP,2013-05-27 06:28:00,
2013-05-27 02:33:00,54.7,43.1,30.25,SSW,202,0.0,0.0,65,0.00,,,0.00,WUHU21523XXSP,2013-05-27 06:33:00,
2013-05-27 02:38:00,54.3,43.2,30.25,SSW,202,0.0,0.0,66,0.00,,,0.00,WUHU21523XXSP,2013-05-27 06:38:00,
2013-05-27 02:43:00,54.3,43.2,30.24,SSW,202,0.0,0.0,66,0.00,,,0.00,WUHU21523XXSP,2013-05-27 06:43:00,
2013-05-27 02:48:00,54.3,43.2,30.24,SSW,202,0.0,0.0,66,0.00,,,0.00,WUHU21523XXSP,2013-05-27 06:48:00,
2013-05-27 02:53:00,54.3,43.6,30.25,SSW,202,0.0,0.0,67,0.00,,,0.00,WUHU21523XXSP,2013-05-27 06:53:00,
2013-05-27 02:58:00,54.3,43.6,30.25,SSW,202,0.0,0.0,67,0.00,,,0.00,WUHU21523XXSP,2013-05-27 06:58:00,
2013-05-27 03:03:00,54.3,43.6,30.25,SSW,202,0.0,0.0,67,0.00,,,0.00,WUHU21523XXSP,2013-05-27 07:03:00,
2013-05-27 03:08:00,54.3,43.6,30.25,SSW,202,0.0,0.0,67,0.00,,,0.00,WUHU21523XXSP,2013-05-27 07:08:00,
2013-05-27 03:13:00,54.1,43.4,30.25,South,180,0.0,0.0,67,0.00,,,0.00,WUHU21523XXSP,2013-05-27 07:13:00,
2013-05-27 03:18:00,54.0,43.6,30.25,South,180,0.0,0.0,68,0.00,,,0.00,WUHU21523XXSP,2013-05-27 07:18:00,
2013-05-27 03:23:00,54.0,43.6,30.25,South,180,0.0,0.0,68,0.00,,,0.00,WUHU21523XXSP,2013-05-27 07:23:00,
2013-05-27 03:28:00,54.0,43.6,30.24,South,180,0.0,0.0,68,0.00,,,0.00,WUHU21523XXSP,2013-05-27 07:28:00,
2013-05-27 03:33:00,53.8,43.4,30.25,South,180,0.0,0.0,68,0.00,,,0.00,WUHU21523XXSP,2013-05-27 07:33:00,
2013-05-27 03:38:00,53.8,43.4,30.25,South,180,0.0,0.0,68,0.00,,,0.00,WUHU21523XXSP,2013-05-27 07:38:00,
2013-05-27 03:43:00,53.4,43.1,30.25,South,180,0.0,0.0,68,0.00,,,0.00,WUHU21523XXSP,2013-05-27 07:43:00,
2013-05-27 03:48:00,53.4,43.1,30.25,South,180,0.0,0.0,68,0.00,,,0.00,WUHU21523XXSP,2013-05-27 07:48:00,
2013-05-27 03:53:00,53.2,42.9,30.25,South,180,0.0,0.0,68,0.00,,,0.00,WUHU21523XXSP,2013-05-27 07:53:00,
2013-05-27 03:58:00,53.2,43.3,30.25,South,180,0.0,0.0,69,0.00,,,0.00,WUHU21523XXSP,2013-05-27 07:58:00,
2013-05-27 04:03:00,53.2,43.3,30.24,South,180,0.0,0.0,69,0.00,,,0.00,WUHU21523XXSP,2013-05-27 08:03:00,
2013-05-27 04:08:00,53.2,43.7,30.25,South,180,0.0,0.0,70,0.00,,,0.00,WUHU21523XXSP,2013-05-27 08:08:00,
2013-05-27 04:13:00,53.2,43.3,30.25,South,180,0.0,0.0,69,0.00,,,0.00,WUHU21523XXSP,2013-05-27 08:13:00,
2013-05-27 04:18:00,53.2,43.3,30.25,South,180,0.0,0.0,69,0.00,,,0.00,WUHU21523XXSP,2013-05-27 08:18:00,
2013-05-27 04:23:00,53.2,43.7,30.25,South,180,0.0,0.0,70,0.00,,,0.00,WUHU21523XXSP,2013-05-27 08:23:00,
2013-05-27 04:28:00,53.2,43.7,30.25,South,180,0.0,0.0,70,0.00,,,0.00,WUHU21523XXSP,2013-05-27 08:28:00,
2013-05-27 04:33:00,53.2,43.7,30.25,South,180,0.0,0.0,70,0.00,,,0.00,WUHU21523XXSP,2013-05-27 08:33:00,
2013-05-27 04:38:00,53.4,43.9,30.25,South,180,0.0,0.0,70,0.00,,,0.00,WUHU21523XXSP,2013-05-27 08:38:00,
2013-05-27 04:43:00,53.4,43.9,30.25,South,180,0.0,0.0,70,0.00,,,0.00,WUHU21523XXSP,2013-05-27 08:43:00,
2013-05-27 04:48:00,53.4,44.2,30.25,South,180,0.0,0.0,71,0.00,,,0.00,WUHU21523XXSP,2013-05-27 08:48:00,
2013-05-27 04:53:00,53.4,43.9,30.25,South,180,0.0,0.0,70,0.00,,,0.00,WUHU21523XXSP,2013-05-27 08:53:00,
2013-05-27 04:58:00,53.4,44.2,30.25,South,180,0.0,0.0,71,0.00,,,0.00,WUHU21523XXSP,2013-05-27 08:58:00,
2013-05-27 05:03:00,53.4,43.9,30.25,South,180,0.0,0.0,70,0.00,,,0.00,WUHU21523XXSP,2013-05-27 09:03:00,
2013-05-27 05:08:00,53.4,44.2,30.25,South,180,0.0,0.0,71,0.00,,,0.00,WUHU21523XXSP,2013-05-27 09:08:00,
2013-05-27 05:13:00,53.4,44.2,30.26,South,180,0.0,0.0,71,0.00,,,0.00,WUHU21523XXSP,2013-05-27 09:13:00,
2013-05-27 05:18:00,53.4,44.2,30.26,South,180,0.0,0.0,71,0.00,,,0.00,WUHU21523XXSP,2013-05-27 09:18:00,
2013-05-27 05:23:00,53.4,44.2,30.26,South,180,0.0,0.0,71,0.00,,,0.00,WUHU21523XXSP,2013-05-27 09:23:00,
2013-05-27 05:28:00,53.6,44.4,30.26,South,180,0.0,0.0,71,0.00,,,0.00,WUHU21523XXSP,2013-05-27 09:28:00,
2013-05-27 05:33:00,53.6,44.4,30.27,South,180,0.0,0.0,71,0.00,,,0.00,WUHU21523XXSP,2013-05-27 09:33:00,
2013-05-27 05:38:00,53.4,44.2,30.26,South,180,0.0,0.0,71,0.00,,,0.00,WUHU21523XXSP,2013-05-27 09:38:00,
2013-05-27 05:43:00,53.4,44.2,30.27,South,180,0.0,0.0,71,0.00,,,0.00,WUHU21523XXSP,2013-05-27 09:43:00,
2013-05-27 05:48:00,53.4,44.2,30.27,South,180,0.0,0.0,71,0.00,,,0.00,WUHU21523XXSP,2013-05-27 09:48:00,
2013-05-27 05:53:00,53.4,44.6,30.27,South,180,0.0,0.0,72,0.00,,,0.00,WUHU21523XXSP,2013-05-27 09:53:00,
2013-05-27 05:58:00,53.4,44.6,30.27,South,180,0.0,0.0,72,0.00,,,0.00,WUHU21523XXSP,2013-05-27 09:58:00,
2013-05-27 06:03:00,53.4,44.6,30.27,South,180,0.0,0.0,72,0.00,,,0.00,WUHU21523XXSP,2013-05-27 10:03:00,
2013-05-27 06:08:00,53.4,44.6,30.27,South,180,0.0,0.0,72,0.00,,,0.00,WUHU21523XXSP,2013-05-27 10:08:00,
2013-05-27 06:13:00,53.2,44.4,30.27,South,180,0.0,0.0,72,0.00,,,0.00,WUHU21523XXSP,2013-05-27 10:13:00,
2013-05-27 06:18:00,53.2,44.4,30.27,South,180,0.0,0.0,72,0.00,,,0.00,WUHU21523XXSP,2013-05-27 10:18:00,
2013-05-27 06:23:00,53.2,44.8,30.27,South,180,0.0,0.0,73,0.00,,,0.00,WUHU21523XXSP,2013-05-27 10:23:00,
2013-05-27 06:28:00,53.2,44.8,30.27,South,180,0.0,0.0,73,0.00,,,0.00,WUHU21523XXSP,2013-05-27 10:28:00,
2013-05-27 06:33:00,53.1,44.6,30.27,South,180,0.0,0.0,73,0.00,,,0.00,WUHU21523XXSP,2013-05-27 10:33:00,
2013-05-27 06:38:00,52.9,44.5,30.28,South,180,0.0,0.0,73,0.00,,,0.00,WUHU21523XXSP,2013-05-27 10:38:00,
2013-05-27 06:43:00,52.9,44.5,30.28,South,180,0.0,0.0,73,0.00,,,0.00,WUHU21523XXSP,2013-05-27 10:43:00,
2013-05-27 06:48:00,52.9,44.5,30.28,South,180,0.0,0.0,73,0.00,,,0.00,WUHU21523XXSP,2013-05-27 10:48:00,
2013-05-27 06:53:00,52.9,44.5,30.28,South,180,0.0,0.0,73,0.00,,,0.00,WUHU21523XXSP,2013-05-27 10:53:00,
2013-05-27 06:58:00,52.9,44.5,30.28,South,180,0.0,0.0,73,0.00,,,0.00,WUHU21523XXSP,2013-05-27 10:58:00,
2013-05-27 07:03:00,52.9,44.8,30.28,South,180,0.0,0.0,74,0.00,,,0.00,WUHU21523XXSP,2013-05-27 11:03:00,
2013-05-27 07:08:00,52.9,44.8,30.28,South,180,0.0,0.0,74,0.00,,,0.00,WUHU21523XXSP,2013-05-27 11:08:00,
2013-05-27 07:13:00,52.9,44.8,30.29,South,180,0.0,0.0,74,0.00,,,0.00,WUHU21523XXSP,2013-05-27 11:13:00,
2013-05-27 07:18:00,52.9,44.8,30.29,South,180,0.0,0.0,74,0.00,,,0.00,WUHU21523XXSP,2013-05-27 11:18:00,
2013-05-27 07:23:00,53.2,45.2,30.29,South,180,0.0,0.0,74,0.00,,,0.00,WUHU21523XXSP,2013-05-27 11:23:00,
2013-05-27 07:28:00,53.2,45.2,30.29,South,180,0.0,0.0,74,0.00,,,0.00,WUHU21523XXSP,2013-05-27 11:28:00,
2013-05-27 07:33:00,53.2,45.2,30.29,South,180,0.0,0.0,74,0.00,,,0.00,WUHU21523XXSP,2013-05-27 11:33:00,
2013-05-27 07:38:00,53.2,45.2,30.29,South,180,0.0,0.0,74,0.00,,,0.00,WUHU21523XXSP,2013-05-27 11:38:00,
2013-05-27 07:43:00,53.4,45.7,30.29,South,180,0.0,0.0,75,0.00,,,0.00,WUHU21523XXSP,2013-05-27 11:43:00,
2013-05-27 07:48:00,53.6,45.9,30.28,South,180,0.0,0.0,75,0.00,,,0.00,WUHU21523XXSP,2013-05-27 11:48:00,
2013-05-27 07:53:00,53.8,46.0,30.29,South,180,0.0,0.0,75,0.00,,,0.00,WUHU21523XXSP,2013-05-27 11:53:00,
2013-05-27 07:58:00,53.8,46.0,30.29,South,180,0.0,0.0,75,0.00,,,0.00,WUHU21523XXSP,2013-05-27 11:58:00,
2013-05-27 08:03:00,54.0,45.8,30.30,South,180,0.0,0.0,74,0.00,,,0.00,WUHU21523XXSP,2013-05-27 12:03:00,
2013-05-27 08:08:00,54.1,46.0,30.30,South,180,0.0,0.0,74,0.00,,,0.00,WUHU21523XXSP,2013-05-27 12:08:00,
2013-05-27 08:13:00,54.1,46.0,30.30,South,180,0.0,0.0,74,0.00,,,0.00,WUHU21523XXSP,2013-05-27 12:13:00,
2013-05-27 08:18:00,54.7,46.5,30.29,South,180,0.0,0.0,74,0.00,,,0.00,WUHU21523XXSP,2013-05-27 12:18:00,
2013-05-27 08:23:00,55.0,46.5,30.29,South,180,0.0,0.0,73,0.00,,,0.00,WUHU21523XXSP,2013-05-27 12:23:00,
2013-05-27 08:28:00,55.2,46.7,30.29,South,180,0.0,0.0,73,0.00,,,0.00,WUHU21523XXSP,2013-05-27 12:28:00,
2013-05-27 08:33:00,55.6,46.7,30.29,South,180,0.0,0.0,72,0.00,,,0.00,WUHU21523XXSP,2013-05-27 12:33:00,
2013-05-27 08:38:00,55.8,46.7,30.29,South,180,0.0,0.0,72,0.00,,,0.00,WUHU21523XXSP,2013-05-27 12:38:00,
2013-05-27 08:43:00,55.9,47.0,30.29,South,180,0.0,0.0,72,0.00,,,0.00,WUHU21523XXSP,2013-05-27 12:43:00,
2013-05-27 08:48:00,56.3,47.4,30.30,South,180,0.0,0.0,72,0.00,,,0.00,WUHU21523XXSP,2013-05-27 12:48:00,
2013-05-27 08:53:00,56.8,47.9,30.29,South,180,0.0,0.0,72,0.00,,,0.00,WUHU21523XXSP,2013-05-27 12:53:00,
2013-05-27 08:58:00,57.0,47.9,30.29,South,180,0.0,0.0,72,0.00,,,0.00,WUHU21523XXSP,2013-05-27 12:58:00,
2013-05-27 09:03:00,57.4,48.0,30.29,South,180,0.0,0.0,71,0.00,,,0.00,WUHU21523XXSP,2013-05-27 13:03:00,
2013-05-27 09:08:00,57.7,48.0,30.29,South,180,0.0,0.0,70,0.00,,,0.00,WUHU21523XXSP,2013-05-27 13:08:00,
2013-05-27 09:13:00,57.9,48.0,30.29,South,180,0.0,0.0,71,0.00,,,0.00,WUHU21523XXSP,2013-05-27 13:13:00,
2013-05-27 09:18:00,58.5,48.7,30.29,South,180,0.0,0.0,70,0.00,,,0.00,WUHU21523XXSP,2013-05-27 13:18:00,
2013-05-27 09:23:00,58.6,48.1,30.29,South,180,14.3,14.3,68,0.00,,,0.00,WUHU21523XXSP,2013-05-27 13:23:00,
2013-05-27 09:28:00,58.8,47.7,30.28,South,180,14.3,14.3,67,0.00,,,0.00,WUHU21523XXSP,2013-05-27 13:28:00,
2013-05-27 09:33:00,59.2,47.8,30.29,South,180,0.0,14.3,66,0.00,,,0.00,WUHU21523XXSP,2013-05-27 13:33:00,
2013-05-27 09:38:00,59.5,48.2,30.29,South,180,0.0,0.0,66,0.00,,,0.00,WUHU21523XXSP,2013-05-27 13:38:00,
2013-05-27 09:43:00,59.9,48.1,30.29,South,180,0.0,0.0,65,0.00,,,0.00,WUHU21523XXSP,2013-05-27 13:43:00,
2013-05-27 09:48:00,60.1,48.7,30.29,South,180,0.0,0.0,66,0.00,,,0.00,WUHU21523XXSP,2013-05-27 13:48:00,
2013-05-27 09:53:00,60.4,49.1,30.29,South,180,0.0,0.0,66,0.00,,,0.00,WUHU21523XXSP,2013-05-27 13:53:00,
2013-05-27 09:58:00,60.6,48.8,30.29,East,90,0.0,0.0,65,0.00,,,0.00,WUHU21523XXSP,2013-05-27 13:58:00,
2013-05-27 10:03:00,61.2,48.3,30.28,East,90,0.0,0.0,61,0.00,,,0.00,WUHU21523XXSP,2013-05-27 14:03:00,
2013-05-27 10:08:00,61.3,47.4,30.29,South,180,0.0,0.0,60,0.00,,,0.00,WUHU21523XXSP,2013-05-27 14:08:00,
2013-05-27 10:13:00,61.5,47.1,30.28,SSW,202,0.0,0.0,59,0.00,,,0.00,WUHU21523XXSP,2013-05-27 14:13:00,
2013-05-27 10:18:00,61.9,47.4,30.28,ENE,67,0.0,0.0,59,0.00,,,0.00,WUHU21523XXSP,2013-05-27 14:18:00,
2013-05-27 10:23:00,62.2,47.3,30.28,WSW,247,0.0,0.0,58,0.00,,,0.00,WUHU21523XXSP,2013-05-27 14:23:00,
2013-05-27 10:28:00,62.4,46.9,30.27,North,0,0.0,0.0,57,0.00,,,0.00,WUHU21523XXSP,2013-05-27 14:28:00,
2013-05-27 10:33:00,62.8,47.3,30.28,ENE,67,0.0,0.0,57,0.00,,,0.00,WUHU21523XXSP,2013-05-27 14:33:00,
2013-05-27 10:38:00,62.8,47.3,30.28,South,180,0.0,0.0,57,0.00,,,0.00,WUHU21523XXSP,2013-05-27 14:38:00,
2013-05-27 10:43:00,63.0,46.9,30.28,East,90,0.0,0.0,56,0.00,,,0.00,WUHU21523XXSP,2013-05-27 14:43:00,
2013-05-27 10:48:00,62.8,46.8,30.28,SW,225,0.0,0.0,56,0.00,,,0.00,WUHU21523XXSP,2013-05-27 14:48:00,
2013-05-27 10:53:00,62.8,46.8,30.28,South,180,0.0,0.0,56,0.00,,,0.00,WUHU21523XXSP,2013-05-27 14:53:00,
2013-05-27 10:58:00,62.8,46.8,30.27,ENE,67,0.0,0.0,56,0.00,,,0.00,WUHU21523XXSP,2013-05-27 14:58:00,
2013-05-27 11:03:00,62.8,46.8,30.28,NE,45,0.0,0.0,56,0.00,,,0.00,WUHU21523XXSP,2013-05-27 15:03:00,
2013-05-27 11:08:00,63.0,46.9,30.27,NE,45,0.0,0.0,56,0.00,,,0.00,WUHU21523XXSP,2013-05-27 15:08:00,
2013-05-27 11:13:00,63.1,47.6,30.27,NE,45,0.0,0.0,57,0.00,,,0.00,WUHU21523XXSP,2013-05-27 15:13:00,
2013-05-27 11:18:00,63.3,47.3,30.27,East,90,0.0,0.0,56,0.00,,,0.00,WUHU21523XXSP,2013-05-27 15:18:00,
2013-05-27 11:23:00,63.5,47.4,30.27,NE,45,0.0,0.0,56,0.00,,,0.00,WUHU21523XXSP,2013-05-27 15:23:00,
2013-05-27 11:28:00,63.7,47.1,30.27,SSW,202,0.0,0.0,55,0.00,,,0.00,WUHU21523XXSP,2013-05-27 15:28:00,
2013-05-27 11:33:00,64.0,47.4,30.27,SSW,202,0.0,0.0,55,0.00,,,0.00,WUHU21523XXSP,2013-05-27 15:33:00,
2013-05-27 11:38:00,64.2,47.1,30.27,SSW,202,0.0,0.0,54,0.00,,,0.00,WUHU21523XXSP,2013-05-27 15:38:00,
2013-05-27 11:43:00,64.4,47.8,30.27,South,180,0.0,0.0,55,0.00,,,0.00,WUHU21523XXSP,2013-05-27 15:43:00,
2013-05-27 11:48:00,64.8,47.6,30.27,South,180,0.0,0.0,54,0.00,,,0.00,WUHU21523XXSP,2013-05-27 15:48:00,
2013-05-27 11:53:00,64.9,47.3,30.27,East,90,0.0,0.0,53,0.00,,,0.00,WUHU21523XXSP,2013-05-27 15:53:00,
2013-05-27 11:58:00,64.9,47.8,30.27,East,90,0.0,0.0,54,0.00,,,0.00,WUHU21523XXSP,2013-05-27 15:58:00,
2013-05-27 12:03:00,65.1,48.0,30.27,WNW,292,0.0,0.0,54,0.00,,,0.00,WUHU21523XXSP,2013-05-27 16:03:00,
2013-05-27 12:08:00,65.3,48.7,30.27,ENE,67,0.0,0.0,55,0.00,,,0.00,WUHU21523XXSP,2013-05-27 16:08:00,
2013-05-27 12:13:00,65.5,49.3,30.27,ENE,67,0.0,0.0,56,0.00,,,0.00,WUHU21523XXSP,2013-05-27 16:13:00,
2013-05-27 12:18:00,65.5,49.8,30.27,WNW,292,0.0,0.0,57,0.00,,,0.00,WUHU21523XXSP,2013-05-27 16:18:00,
2013-05-27 12:23:00,65.7,50.0,30.27,WNW,292,0.0,0.0,57,0.00,,,0.00,WUHU21523XXSP,2013-05-27 16:23:00,
2013-05-27 12:28:00,65.8,49.7,30.27,North,0,0.0,0.0,56,0.00,,,0.00,WUHU21523XXSP,2013-05-27 16:28:00,
2013-05-27 12:33:00,66.0,49.4,30.26,North,0,0.0,0.0,55,0.00,,,0.00,WUHU21523XXSP,2013-05-27 16:33:00,
2013-05-27 12:38:00,66.4,50.0,30.27,NNE,22,0.0,0.0,56,0.00,,,0.00,WUHU21523XXSP,2013-05-27 16:38:00,
2013-05-27 12:43:00,66.7,50.0,30.27,South,180,0.0,0.0,55,0.00,,,0.00,WUHU21523XXSP,2013-05-27 16:43:00,
2013-05-27 12:48:00,67.3,50.5,30.26,North,0,0.0,0.0,55,0.00,,,0.00,WUHU21523XXSP,2013-05-27 16:48:00,
2013-05-27 12:53:00,67.3,50.0,30.26,NW,315,0.0,0.0,54,0.00,,,0.00,WUHU21523XXSP,2013-05-27 16:53:00,
2013-05-27 12:58:00,67.6,50.4,30.26,ENE,67,0.0,0.0,54,0.00,,,0.00,WUHU21523XXSP,2013-05-27 16:58:00,
2013-05-27 13:03:00,68.2,50.8,30.26,North,0,0.0,0.0,54,0.00,,,0.00,WUHU21523XXSP,2013-05-27 17:03:00,
2013-05-27 13:08:00,68.4,51.0,30.25,WSW,247,0.0,0.0,54,0.00,,,0.00,WUHU21523XXSP,2013-05-27 17:08:00,
2013-05-27 13:13:00,68.7,51.4,30.25,South,180,0.0,0.0,54,0.00,,,0.00,WUHU21523XXSP,2013-05-27 17:13:00,
2013-05-27 13:18:00,69.1,51.2,30.25,ESE,112,0.0,0.0,53,0.00,,,0.00,WUHU21523XXSP,2013-05-27 17:18:00,
2013-05-27 13:23:00,69.3,51.4,30.25,South,180,0.0,0.0,53,0.00,,,0.00,WUHU21523XXSP,2013-05-27 17:23:00,
2013-05-27 13:28:00,69.6,51.2,30.25,South,180,0.0,0.0,52,0.00,,,0.00,WUHU21523XXSP,2013-05-27 17:28:00,
2013-05-27 13:33:00,69.8,51.9,30.24,South,180,0.0,0.0,53,0.00,,,0.00,WUHU21523XXSP,2013-05-27 17:33:00,
2013-05-27 13:38:00,70.2,51.7,30.24,SSW,202,1.6,1.6,52,0.00,,,0.00,WUHU21523XXSP,2013-05-27 17:38:00,
2013-05-27 13:43:00,70.3,51.9,30.24,SSW,202,0.0,1.6,52,0.00,,,0.00,WUHU21523XXSP,2013-05-27 17:43:00,
2013-05-27 13:48:00,70.9,52.8,30.23,South,180,0.0,0.0,53,0.00,,,0.00,WUHU21523XXSP,2013-05-27 17:48:00,
2013-05-27 13:53:00,71.4,53.3,30.23,North,0,0.0,0.0,53,0.00,,,0.00,WUHU21523XXSP,2013-05-27 17:53:00,
2013-05-27 13:58:00,71.8,54.2,30.23,NE,45,0.0,0.0,54,0.00,,,0.00,WUHU21523XXSP,2013-05-27 17:58:00,
2013-05-27 14:03:00,72.3,54.1,30.22,SE,135,0.0,0.0,53,0.00,,,0.00,WUHU21523XXSP,2013-05-27 18:03:00,
2013-05-27 14:08:00,72.7,53.5,30.23,South,180,0.0,0.0,51,0.00,,,0.00,WUHU21523XXSP,2013-05-27 18:08:00,
2013-05-27 14:13:00,73.0,54.3,30.23,NE,45,0.0,0.0,52,0.00,,,0.00,WUHU21523XXSP,2013-05-27 18:13:00,
2013-05-27 14:18:00,73.6,53.8,30.22,SW,225,0.0,0.0,50,0.00,,,0.00,WUHU21523XXSP,2013-05-27 18:18:00,
2013-05-27 14:23:00,73.6,54.3,30.22,ENE,67,0.0,0.0,51,0.00,,,0.00,WUHU21523XXSP,2013-05-27 18:23:00,
2013-05-27 14:28:00,73.8,54.5,30.22,South,180,1.3,1.3,51,0.00,,,0.00,WUHU21523XXSP,2013-05-27 18:28:00,
2013-05-27 14:33:00,73.8,54.5,30.22,NE,45,0.0,1.3,51,0.00,,,0.00,WUHU21523XXSP,2013-05-27 18:33:00,
2013-05-27 14:38:00,73.6,53.8,30.22,NE,45,0.0,0.0,50,0.00,,,0.00,WUHU21523XXSP,2013-05-27 18:38:00,
2013-05-27 14:43:00,73.4,54.1,30.21,NE,45,0.0,0.0,51,0.00,,,0.00,WUHU21523XXSP,2013-05-27 18:43:00,
2013-05-27 14:48:00,73.6,53.8,30.21,NE,45,0.0,0.0,50,0.00,,,0.00,WUHU21523XXSP,2013-05-27 18:48:00,
2013-05-27 14:53:00,73.8,54.5,30.21,North,0,0.0,0.0,51,0.00,,,0.00,WUHU21523XXSP,2013-05-27 18:53:00,
2013-05-27 14:58:00,73.9,54.6,30.20,NE,45,0.0,0.0,51,0.00,,,0.00,WUHU21523XXSP,2013-05-27 18:58:00,
2013-05-27 15:08:00,74.1,54.3,30.20,WSW,247,0.0,0.0,50,0.00,,,0.00,WUHU21523XXSP,2013-05-27 19:08:00,
2013-05-27 15:13:00,74.3,53.9,30.19,South,180,0.0,0.0,49,0.00,,,0.00,WUHU21523XXSP,2013-05-27 19:13:00,
2013-05-27 15:18:00,74.5,54.7,30.20,South,180,0.0,0.0,50,0.00,,,0.00,WUHU21523XXSP,2013-05-27 19:18:00,
2013-05-27 15:23:00,74.5,54.7,30.19,South,180,0.0,0.0,50,0.00,,,0.00,WUHU21523XXSP,2013-05-27 19:23:00,
2013-05-27 15:28:00,74.7,54.2,30.19,SE,135,0.0,0.0,49,0.00,,,0.00,WUHU21523XXSP,2013-05-27 19:28:00,
2013-05-27 15:33:00,74.8,55.0,30.19,NE,45,0.0,0.0,50,0.00,,,0.00,WUHU21523XXSP,2013-05-27 19:33:00,
2013-05-27 15:38:00,75.0,55.2,30.19,South,180,0.0,0.0,50,0.00,,,0.00,WUHU21523XXSP,2013-05-27 19:38:00,
2013-05-27 15:43:00,75.0,55.2,30.18,NNE,22,0.0,0.0,50,0.00,,,0.00,WUHU21523XXSP,2013-05-27 19:43:00,
2013-05-27 15:48:00,75.2,55.9,30.18,SSW,202,0.0,0.0,51,0.00,,,0.00,WUHU21523XXSP,2013-05-27 19:48:00,
2013-05-27 15:53:00,75.4,56.1,30.18,NNE,22,0.0,0.0,51,0.00,,,0.00,WUHU21523XXSP,2013-05-27 19:53:00,
2013-05-27 15:58:00,75.4,56.1,30.19,NW,315,0.0,0.0,51,0.00,,,0.00,WUHU21523XXSP,2013-05-27 19:58:00,
2013-05-27 16:03:00,75.6,55.7,30.18,NNW,337,0.0,0.0,50,0.00,,,0.00,WUHU21523XXSP,2013-05-27 20:03:00,
2013-05-27 16:08:00,75.4,55.6,30.18,NW,315,0.0,0.0,50,0.00,,,0.00,WUHU21523XXSP,2013-05-27 20:08:00,
2013-05-27 16:13:00,75.4,56.1,30.17,WSW,247,0.0,0.0,52,0.00,,,0.00,WUHU21523XXSP,2013-05-27 20:13:00,
2013-05-27 16:18:00,75.4,56.6,30.17,ENE,67,0.0,0.0,52,0.00,,,0.00,WUHU21523XXSP,2013-05-27 20:18:00,
2013-05-27 16:23:00,75.4,57.1,30.17,North,0,0.0,0.0,53,0.00,,,0.00,WUHU21523XXSP,2013-05-27 20:23:00,
2013-05-27 16:28:00,75.6,56.7,30.17,NNW,337,0.0,0.0,52,0.00,,,0.00,WUHU21523XXSP,2013-05-27 20:28:00,
2013-05-27 16:38:00,75.7,57.4,30.17,SE,135,0.0,0.0,53,0.00,,,0.00,WUHU21523XXSP,2013-05-27 20:38:00,
2013-05-27 16:43:00,75.9,57.6,30.16,SSW,202,0.0,0.0,53,0.00,,,0.00,WUHU21523XXSP,2013-05-27 20:43:00,
2013-05-27 16:48:00,76.3,57.9,30.16,SE,135,0.0,0.0,53,0.00,,,0.00,WUHU21523XXSP,2013-05-27 20:48:00,
2013-05-27 16:53:00,76.3,57.9,30.16,South,180,1.3,1.3,53,0.00,,,0.00,WUHU21523XXSP,2013-05-27 20:53:00,
2013-05-27 16:58:00,76.3,57.9,30.16,NW,315,0.0,1.3,53,0.00,,,0.00,WUHU21523XXSP,2013-05-27 20:58:00,
2013-05-27 17:03:00,76.3,57.9,30.16,SSE,157,0.0,0.0,53,0.00,,,0.00,WUHU21523XXSP,2013-05-27 21:03:00,
2013-05-27 17:08:00,76.3,58.4,30.15,SW,225,0.0,0.0,54,0.00,,,0.00,WUHU21523XXSP,2013-05-27 21:08:00,
2013-05-27 17:13:00,76.3,58.4,30.15,NNW,337,0.0,0.0,54,0.00,,,0.00,WUHU21523XXSP,2013-05-27 21:13:00,
2013-05-27 17:18:00,76.3,58.4,30.16,West,270,0.0,0.0,54,0.00,,,0.00,WUHU21523XXSP,2013-05-27 21:18:00,
2013-05-27 17:23:00,76.3,58.4,30.16,SSW,202,0.0,0.0,54,0.00,,,0.00,WUHU21523XXSP,2013-05-27 21:23:00,
2013-05-27 17:28:00,76.1,58.2,30.16,WSW,247,0.0,0.0,54,0.00,,,0.00,WUHU21523XXSP,2013-05-27 21:28:00,
2013-05-27 17:33:00,75.9,58.1,30.16,South,180,0.0,0.0,54,0.00,,,0.00,WUHU21523XXSP,2013-05-27 21:33:00,
2013-05-27 17:38:00,75.6,57.2,30.16,South,180,0.0,0.0,53,0.00,,,0.00,WUHU21523XXSP,2013-05-27 21:38:00,
2013-05-27 17:43:00,75.0,57.2,30.16,SSW,202,0.0,0.0,54,0.00,,,0.00,WUHU21523XXSP,2013-05-27 21:43:00,
2013-05-27 17:48:00,74.8,57.1,30.16,SW,225,0.0,0.0,54,0.00,,,0.00,WUHU21523XXSP,2013-05-27 21:48:00,
2013-05-27 17:53:00,74.8,57.6,30.16,NW,315,0.0,0.0,55,0.00,,,0.00,WUHU21523XXSP,2013-05-27 21:53:00,
2013-05-27 17:58:00,74.5,57.7,30.16,South,180,0.0,0.0,56,0.00,,,0.00,WUHU21523XXSP,2013-05-27 21:58:00,
2013-05-27 18:03:00,74.5,57.7,30.16,South,180,0.0,0.0,56,0.00,,,0.00,WUHU21523XXSP,2013-05-27 22:03:00,
2013-05-27 18:08:00,74.5,57.7,30.16,ENE,67,0.0,0.0,56,0.00,,,0.00,WUHU21523XXSP,2013-05-27 22:08:00,
2013-05-27 18:13:00,74.3,57.5,30.16,SW,225,0.0,0.0,56,0.00,,,0.00,WUHU21523XXSP,2013-05-27 22:13:00,
2013-05-27 18:18:00,74.1,57.3,30.15,SSW,202,0.0,0.0,56,0.00,,,0.00,WUHU21523XXSP,2013-05-27 22:18:00,
2013-05-27 18:23:00,74.1,57.8,30.15,SSE,157,0.0,0.0,57,0.00,,,0.00,WUHU21523XXSP,2013-05-27 22:23:00,
2013-05-27 18:28:00,74.1,57.7,30.15,ENE,67,0.0,0.0,57,0.00,,,0.00,WUHU21523XXSP,2013-05-27 22:28:00,
2013-05-27 18:33:00,74.1,57.8,30.15,SSE,157,0.0,0.0,57,0.00,,,0.00,WUHU21523XXSP,2013-05-27 22:33:00,
2013-05-27 18:38:00,74.1,57.8,30.15,ESE,112,0.0,0.0,57,0.00,,,0.00,WUHU21523XXSP,2013-05-27 22:38:00,
2013-05-27 18:43:00,74.1,58.4,30.15,ENE,67,0.0,0.0,58,0.00,,,0.00,WUHU21523XXSP,2013-05-27 22:43:00,
2013-05-27 18:48:00,74.1,58.4,30.14,ENE,67,0.0,0.0,58,0.00,,,0.00,WUHU21523XXSP,2013-05-27 22:48:00,
2013-05-27 18:53:00,73.9,58.2,30.14,ENE,67,0.0,0.0,58,0.00,,,0.00,WUHU21523XXSP,2013-05-27 22:53:00,
2013-05-27 18:58:00,73.8,58.5,30.14,SW,225,0.0,0.0,59,0.00,,,0.00,WUHU21523XXSP,2013-05-27 22:58:00,
2013-05-27 19:03:00,73.6,58.3,30.15,East,90,0.0,0.0,59,0.00,,,0.00,WUHU21523XXSP,2013-05-27 23:03:00,
2013-05-27 19:08:00,73.6,58.3,30.14,NE,45,0.0,0.0,59,0.00,,,0.00,WUHU21523XXSP,2013-05-27 23:08:00,
2013-05-27 19:13:00,73.2,58.0,30.14,SSE,157,0.0,0.0,59,0.00,,,0.00,WUHU21523XXSP,2013-05-27 23:13:00,
2013-05-27 19:18:00,73.2,58.5,30.14,ENE,67,0.0,0.0,60,0.00,,,0.00,WUHU21523XXSP,2013-05-27 23:18:00,
2013-05-27 19:23:00,73.4,58.6,30.14,NE,45,0.0,0.0,60,0.00,,,0.00,WUHU21523XXSP,2013-05-27 23:23:00,
2013-05-27 19:28:00,73.2,58.5,30.14,ENE,67,0.0,0.0,60,0.00,,,0.00,WUHU21523XXSP,2013-05-27 23:28:00,
2013-05-27 19:33:00,73.2,58.5,30.14,NNE,22,0.0,0.0,60,0.00,,,0.00,WUHU21523XXSP,2013-05-27 23:33:00,
2013-05-27 19:38:00,73.2,58.5,30.14,NE,45,0.0,0.0,60,0.00,,,0.00,WUHU21523XXSP,2013-05-27 23:38:00,
2013-05-27 19:43:00,73.0,58.7,30.14,NE,45,0.0,0.0,61,0.00,,,0.00,WUHU21523XXSP,2013-05-27 23:43:00,
2013-05-27 19:48:00,73.0,58.7,30.14,WSW,247,0.0,0.0,61,0.00,,,0.00,WUHU21523XXSP,2013-05-27 23:48:00,
2013-05-27 19:53:00,72.7,58.4,30.14,WSW,247,0.0,0.0,61,0.00,,,0.00,WUHU21523XXSP,2013-05-27 23:53:00,
2013-05-27 19:58:00,72.5,58.3,30.14,WSW,247,0.0,0.0,61,0.00,,,0.00,WUHU21523XXSP,2013-05-27 23:58:00,
2013-05-27 20:03:00,72.3,58.1,30.14,SW,225,0.0,0.0,61,0.00,,,0.00,WUHU21523XXSP,2013-05-28 00:03:00,
2013-05-27 20:08:00,72.1,57.9,30.14,East,90,0.0,0.0,61,0.00,,,0.00,WUHU21523XXSP,2013-05-28 00:08:00,
2013-05-27 20:13:00,71.8,57.6,30.14,West,270,0.0,0.0,61,0.00,,,0.00,WUHU21523XXSP,2013-05-28 00:13:00,
2013-05-27 20:18:00,71.4,57.3,30.15,SW,225,0.0,0.0,61,0.00,,,0.00,WUHU21523XXSP,2013-05-28 00:18:00,
2013-05-27 20:23:00,71.2,56.7,30.15,SSW,202,0.0,0.0,60,0.00,,,0.00,WUHU21523XXSP,2013-05-28 00:23:00,
2013-05-27 20:28:00,70.7,56.6,30.15,South,180,0.0,0.0,61,0.00,,,0.00,WUHU21523XXSP,2013-05-28 00:28:00,
2013-05-27 20:33:00,70.5,56.5,30.15,SSW,202,0.0,0.0,61,0.00,,,0.00,WUHU21523XXSP,2013-05-28 00:33:00,
2013-05-27 20:38:00,70.3,56.3,30.15,ESE,112,0.0,0.0,61,0.00,,,0.00,WUHU21523XXSP,2013-05-28 00:38:00,
2013-05-27 20:43:00,70.0,56.0,30.15,East,90,0.0,0.0,61,0.00,,,0.00,WUHU21523XXSP,2013-05-28 00:43:00,
2013-05-27 20:48:00,69.8,56.2,30.15,ENE,67,16.6,16.6,62,0.00,,,0.00,WUHU21523XXSP,2013-05-28 00:48:00,
2013-05-27 20:53:00,69.6,56.0,30.15,WSW,247,0.3,17.7,62,0.00,,,0.00,WUHU21523XXSP,2013-05-28 00:53:00,
2013-05-27 20:58:00,69.6,56.0,30.15,East,90,23.9,23.9,62,0.00,,,0.00,WUHU21523XXSP,2013-05-28 00:58:00,
2013-05-27 21:03:00,69.4,55.9,30.15,SW,234,26.0,32.2,62,0.00,,,0.00,WUHU21523XXSP,2013-05-28 01:03:00,
2013-05-27 21:08:00,69.3,55.7,30.16,ENE,67,0.0,32.2,62,0.00,,,0.00,WUHU21523XXSP,2013-05-28 01:08:00,
2013-05-27 21:13:00,69.1,55.5,30.16,SW,225,0.0,32.2,62,0.00,,,0.00,WUHU21523XXSP,2013-05-28 01:13:00,
2013-05-27 21:18:00,69.1,55.9,30.16,SSW,202,0.0,0.0,63,0.00,,,0.00,WUHU21523XXSP,2013-05-28 01:18:00,
2013-05-27 21:23:00,68.9,55.8,30.16,SSW,202,16.9,17.9,63,0.00,,,0.00,WUHU21523XXSP,2013-05-28 01:23:00,
2013-05-27 21:28:00,68.7,55.6,30.16,SSW,202,0.0,17.9,63,0.00,,,0.00,WUHU21523XXSP,2013-05-28 01:28:00,
2013-05-27 21:33:00,68.7,55.6,30.16,ENE,67,0.0,0.0,63,0.00,,,0.00,WUHU21523XXSP,2013-05-28 01:33:00,
2013-05-27 21:38:00,68.7,55.6,30.16,ENE,67,0.0,9.6,63,0.00,,,0.00,WUHU21523XXSP,2013-05-28 01:38:00,
2013-05-27 21:43:00,68.5,55.4,30.16,NE,45,18.6,23.7,63,0.00,,,0.00,WUHU21523XXSP,2013-05-28 01:43:00,
2013-05-27 21:48:00,68.5,55.4,30.17,NE,45,0.0,24.2,63,0.00,,,0.00,WUHU21523XXSP,2013-05-28 01:48:00,
2013-05-27 21:53:00,68.2,55.5,30.17,NE,45,0.0,24.2,64,0.00,,,0.00,WUHU21523XXSP,2013-05-28 01:53:00,
2013-05-27 21:58:00,68.2,55.5,30.17,NE,45,16.6,19.2,64,0.00,,,0.00,WUHU21523XXSP,2013-05-28 01:58:00,
2013-05-27 22:03:00,67.8,55.1,30.17,NE,45,0.0,16.6,64,0.00,,,0.00,WUHU21523XXSP,2013-05-28 02:03:00,
2013-05-27 22:08:00,67.8,55.1,30.18,NE,45,21.7,21.7,64,0.00,,,0.00,WUHU21523XXSP,2013-05-28 02:08:00,
2013-05-27 22:13:00,67.8,55.1,30.18,NE,45,0.0,25.5,64,0.00,,,0.00,WUHU21523XXSP,2013-05-28 02:13:00,
2013-05-27 22:18:00,67.6,55.0,30.18,NE,45,0.0,25.5,64,0.00,,,0.00,WUHU21523XXSP,2013-05-28 02:18:00,
2013-05-27 22:23:00,67.6,55.0,30.18,NE,45,15.0,24.6,64,0.00,,,0.00,WUHU21523XXSP,2013-05-28 02:23:00,
2013-05-27 22:28:00,67.6,55.0,30.19,NE,45,10.3,15.0,64,0.00,,,0.00,WUHU21523XXSP,2013-05-28 02:28:00,
2013-05-27 22:33:00,67.6,55.0,30.18,NE,45,14.5,14.5,64,0.00,,,0.00,WUHU21523XXSP,2013-05-28 02:33:00,
2013-05-27 22:38:00,67.6,55.4,30.18,NE,45,0.0,14.5,65,0.00,,,0.00,WUHU21523XXSP,2013-05-28 02:38:00,
2013-05-27 22:43:00,67.5,55.2,30.18,NE,45,21.3,21.3,65,0.00,,,0.00,WUHU21523XXSP,2013-05-28 02:43:00,
2013-05-27 22:48:00,67.3,55.1,30.19,North,0,28.4,28.4,65,0.00,,,0.00,WUHU21523XXSP,2013-05-28 02:48:00,
2013-05-27 22:53:00,67.3,55.1,30.19,North,0,0.0,28.4,65,0.00,,,0.00,WUHU21523XXSP,2013-05-28 02:53:00,
2013-05-27 22:58:00,67.3,55.1,30.18,SSE,157,0.0,28.4,65,0.00,,,0.00,WUHU21523XXSP,2013-05-28 02:58:00,
2013-05-27 23:03:00,67.1,54.9,30.18,ESE,112,12.3,12.3,65,0.00,,,0.00,WUHU21523XXSP,2013-05-28 03:03:00,
2013-05-27 23:08:00,67.3,55.1,30.18,ESE,112,0.0,12.3,65,0.00,,,0.00,WUHU21523XXSP,2013-05-28 03:08:00,
2013-05-27 23:13:00,67.1,54.9,30.18,ESE,112,0.0,0.0,65,0.00,,,0.00,WUHU21523XXSP,2013-05-28 03:13:00,
2013-05-27 23:18:00,67.1,54.9,30.18,ESE,112,0.0,0.0,65,0.00,,,0.00,WUHU21523XXSP,2013-05-28 03:18:00,
2013-05-27 23:23:00,66.9,54.7,30.18,East,90,0.0,0.0,65,0.00,,,0.00,WUHU21523XXSP,2013-05-28 03:23:00,
2013-05-27 23:28:00,66.9,54.7,30.18,East,90,0.0,0.0,65,0.00,,,0.00,WUHU21523XXSP,2013-05-28 03:28:00,
2013-05-27 23:33:00,66.9,54.7,30.18,East,90,0.0,0.0,65,0.00,,,0.00,WUHU21523XXSP,2013-05-28 03:33:00,
2013-05-27 23:38:00,66.7,54.6,30.18,East,90,0.0,0.0,65,0.00,,,0.00,WUHU21523XXSP,2013-05-28 03:38:00,
2013-05-27 23:43:00,66.7,55.0,30.18,East,90,19.0,19.0,66,0.00,,,0.00,WUHU21523XXSP,2013-05-28 03:43:00,
2013-05-27 23:48:00,66.7,55.0,30.18,East,90,0.0,19.0,66,0.00,,,0.00,WUHU21523XXSP,2013-05-28 03:48:00,
2013-05-27 23:53:00,66.7,55.0,30.18,East,90,0.0,0.0,66,0.00,,,0.00,WUHU21523XXSP,2013-05-28 03:53:00,
2013-05-27 23:58:00,66.6,54.8,30.18,East,90,0.0,0.0,66,0.00,,,0.00,WUHU21523XXSP,2013-05-28 03:58:00,